Location: Deinsdorf
(49.5092°N, 11.5502°E)
Time: 03:41:45
(UTC+00:00)

Daily predictions for brighter satellites

Satellite Brightness Start Highest point End
(mag) Time Altitude Azimuth Time Altitude Azimuth Time Altitude Azimuth
CZ-4C R/B 4.0 00:06:34 27° NNW 00:06:54 27° NNW 00:12:32 10° NE
USA 234 4.0 00:01:30 10° E 00:07:43 48° N 00:07:48 48° N
Cosmos 2369 Rocket 4.0 00:10:56 26° N 00:10:56 26° N 00:13:59 10° NNE
ADEOS II 3.9 00:41:03 10° NE 00:44:28 25° ENE 00:44:28 25° ENE
Cosmos 2181 Rocket 4.5 00:58:47 56° NNE 00:58:47 56° NNE 01:03:38 10° NNE
Cosmos 2227 Rocket 4.0 00:52:00 10° NNW 00:54:07 24° NNW 00:54:07 24° NNW
SL-16 R/B 3.5 01:15:09 35° NW 01:15:09 35° NW 01:18:43 10° NNW
USA 267 4.1 01:07:36 10° ENE 01:13:06 37° ESE 01:13:06 37° ESE
SJ 16-02 4.2 01:17:10 10° NNE 01:19:51 16° NE 01:22:31 10° E
CZ-2D R/B 3.0 01:15:12 10° NNE 01:18:48 44° N 01:18:48 44° N
ATLAS 2AS CENTAUR R/B 4.5 01:14:03 10° NW 01:20:51 31° NNE 01:27:16 10° ENE
Resurs 1-4 Rocket 3.0 01:22:21 10° N 01:25:56 43° N 01:25:56 43° N
Lacrosse 5 3.2 01:29:27 34° E 01:29:27 34° E 01:32:42 10° ENE
ATLAS 5 CENTAUR R/B 3.3 01:30:41 31° N 01:30:41 31° N 01:33:44 10° NE
NPP 4.3 01:26:10 10° NNE 01:30:13 51° N 01:30:13 51° N
SL-08 R/B 4.2 01:37:45 45° NNE 01:37:45 45° NNE 01:41:22 10° N
Cosmos 1818 4.1 01:44:09 51° NNW 01:44:09 51° NNW 01:48:47 10° NE
Cosmos 2297 Rocket 4.5 01:38:54 10° NW 01:39:22 12° NW 01:39:22 12° NW
USA 234 3.3 01:43:50 10° ESE 01:50:22 78° NNE 01:55:07 20° NW
IRS-P3 4.3 01:45:33 10° NNE 01:50:52 63° ESE 01:51:04 62° ESE
Timation 1 Rocket 4.4 01:45:30 10° NNW 01:51:31 74° ENE 01:57:31 10° SE
Cosmos 2360 4.5 01:55:36 57° SE 01:56:09 59° ESE 02:01:48 10° NE
Cosmos 1821 Rocket 3.9 01:52:48 10° N 01:59:10 87° W 02:00:05 67° S
CZ-4B R/B 3.6 01:54:15 10° NNE 01:58:43 67° NNW 01:58:43 67° NNW
Cosmos 1697 Rocket 2.5 02:01:35 81° SSE 02:01:45 83° ESE 02:07:24 10° NNE
Cosmos 972 Rocket 3.9 02:05:43 73° E 02:05:43 73° E 02:10:35 10° NNE
Cosmos 1980 Rocket 2.7 02:05:36 44° SSE 02:06:51 52° ESE 02:12:21 10° NE
NOSS 2-2 (C) 4.3 02:06:13 53° WNW 02:07:41 74° SW 02:15:19 10° SSE
SL-24 R/B 4.5 02:08:57 65° SE 02:09:37 78° ENE 02:15:04 10° NNW
Cosmos 1934 Rocket 4.1 02:04:27 10° N 02:10:32 71° E 02:15:17 17° SSE
Cosmos 2263 Rocket 2.9 02:06:01 10° NNW 02:11:35 53° NE 02:17:06 10° SE
Meteor 1-26 Rocket 4.2 02:11:25 54° SSE 02:12:32 71° E 02:17:56 10° NNE
Cosmos 1515 Rocket 3.9 02:12:56 62° ESE 02:13:02 62° E 02:17:26 10° NNE
Meteor 1-25 Rocket 4.1 02:08:54 10° NNW 02:14:42 70° W 02:14:52 69° WSW
SL-16 R/B 4.3 02:18:48 10° SSE 02:23:05 23° ESE 02:27:24 10° NE
Cosmos 1328 Rocket 3.9 02:24:02 54° NNW 02:24:02 54° NNW 02:27:43 10° N
Gbstr 26 Del rocket 4.4 02:18:38 29° WNW 02:23:17 88° SSW 02:30:50 10° ESE
Celestis-02/Orion 38 4.5 02:19:39 10° SSE 02:24:55 88° WSW 02:30:07 10° NNW
CZ-3B R/B 2.0 02:25:23 71° N 02:25:23 71° N 02:32:40 10° ENE
ADEOS II 2.3 02:20:19 10° N 02:25:23 51° WNW 02:25:23 51° WNW
Cosmos 1151 Rocket 3.7 02:26:32 44° NNW 02:26:32 44° NNW 02:29:51 10° N
Cosmos 1500 4.3 02:22:37 10° N 02:26:20 43° ENE 02:28:33 21° SE
USA 305 2.9 02:27:21 76° E 02:27:21 76° E 02:31:20 10° ENE
Nadezhda 3 Rocket 3.9 02:26:57 54° SW 02:28:14 67° WNW 02:34:23 10° N
Cosmos 1933 Rocket 3.5 02:24:54 10° NNW 02:28:51 71° NNW 02:28:51 71° NNW
Cosmos 2227 4.3 02:24:07 10° NNW 02:29:48 73° ENE 02:35:25 10° SE
ARIANE 5 R/B 2.4 02:25:15 10° NNE 02:30:23 86° WNW 02:31:23 59° SSW
USA 306 2.8 02:31:23 83° E 02:31:23 83° E 02:35:32 10° ENE
Cosmos 1656 4.3 02:32:28 37° WNW 02:32:57 38° NW 02:38:06 10° NNE
CZ-4C R/B 3.9 02:32:38 27° SE 02:34:18 51° ENE 02:37:47 10° N
IDEFIX/ARIANE 42P 2.6 02:29:31 10° NNE 02:34:51 82° ESE 02:36:51 40° S
IRS-1D 4.2 02:30:17 10° N 02:35:16 40° WNW 02:35:24 40° WNW
Cosmos 1605 Rocket 4.2 02:30:47 10° N 02:37:12 74° E 02:43:36 10° SSE
Cosmos 1535 Rocket 4.4 02:32:12 10° NNW 02:38:37 79° W 02:45:00 10° S
Meteor 1-14 Rocket 4.0 02:33:12 10° NNW 02:38:50 76° W 02:42:39 21° S
ASTEX 1 3.3 02:34:43 10° N 02:39:45 83° W 02:41:21 44° SSW
CZ-2C R/B 4.1 02:35:30 10° NNE 02:40:08 33° E 02:44:48 10° SSE
Cosmos 2228 Rocket 3.4 02:39:36 32° SSE 02:41:28 63° E 02:45:50 10° NNE
Meteor 1-5 Rocket 4.3 02:38:29 10° N 02:43:48 69° ENE 02:49:10 10° SSE
CZ-2D R/B 3.4 02:43:21 10° N 02:47:34 77° WNW 02:48:18 59° SW
SL-4 R/B 4.4 02:45:52 14° SSE 02:47:59 18° SE 02:51:09 10° E
Cosmos 1869 Rocket 3.8 02:44:20 10° N 02:48:41 67° ENE 02:52:59 10° SSE
NOSS 3-4 (A) 4.4 02:42:33 10° NW 02:49:15 56° NE 02:56:41 10° ESE
NOSS 3-4 (C) 4.4 02:42:41 10° NW 02:49:21 56° NE 02:56:47 10° ESE
IRS-1C 4.4 02:46:31 10° N 02:51:38 48° WNW 02:52:49 41° WSW
USA 267 3.2 02:50:28 10° ENE 02:57:03 84° NNW 03:00:27 31° WSW
Cosmos 1238 Rocket 4.0 02:52:01 10° NNW 02:58:32 60° W 03:04:09 12° S
USA 307 2.9 02:57:59 51° W 02:58:56 72° NNW 03:03:12 10° ENE
CZ-2C R/B 2.6 02:55:10 10° NNE 02:58:58 88° ESE 03:00:12 42° SSW
SJ 16-02 1.2 02:54:38 10° NNW 02:59:04 82° WSW 03:03:27 10° SSE
Cosmos 1782 3.1 02:59:09 45° WNW 02:59:09 45° WNW 03:02:59 10° N
CZ-2D R/B 3.9 02:56:48 10° NNW 02:59:45 15° NW 03:00:07 15° WNW
NOSS 3-3 (A) 4.1 02:56:41 26° SSW 03:00:04 67° SE 03:06:37 10° NE
NOSS 3-3 (C) 4.1 02:56:50 26° SSW 03:00:12 66° SE 03:06:41 10° NE
Cosmos 44 3.0 02:59:36 44° SW 03:01:01 88° WNW 03:05:45 10° NE
Meteor 1-4 Rocket 3.5 02:59:36 17° SSE 03:01:57 45° E 03:05:20 10° NNE
USA 308 2.9 03:01:02 47° W 03:02:08 70° NNW 03:06:24 10° ENE
Cosmos 389 Rocket 2.8 03:02:26 48° WNW 03:02:26 48° WNW 03:05:41 10° N
PSLV R/B 4.4 02:58:10 10° NNE 03:02:16 48° E 03:06:19 10° S
PAYLOAD A 4.4 02:59:58 10° NNE 03:04:36 57° E 03:09:13 10° S
USA 276 2.0 03:04:24 73° NW 03:04:38 80° N 03:07:51 10° E
Cosmos 2278 3.8 03:02:25 35° WSW 03:04:46 60° WNW 03:10:26 10° NNE
Resurs 1-4 Rocket 4.0 03:04:07 10° NNW 03:06:29 13° NW 03:07:00 13° WNW
Cosmos 990 Rocket 4.0 03:02:03 10° NNW 03:07:17 86° ENE 03:12:30 10° SSE
H-2A R/B 2.0 03:05:10 10° S 03:09:32 70° WSW 03:14:01 10° NNW
ATLAS CENTAUR R/B 4.0 02:57:29 10° WNW 03:09:53 53° N 03:14:36 10° E
Lacrosse 5 2.2 03:08:39 32° W 03:10:48 57° NNW 03:15:50 10° NE
ERBS 3.1 03:11:03 34° S 03:12:00 44° SE 03:15:13 10° ENE
ATLAS 2AS CENTAUR R/B 3.3 03:05:43 10° NW 03:13:20 63° NE 03:20:19 10° ESE
Cosmos 2369 4.4 03:11:30 29° W 03:13:41 39° NW 03:19:04 10° NNE
Cosmos 468 Rocket 4.5 03:09:23 10° S 03:14:35 61° ESE 03:19:47 10° NNE
Cosmos 1727 Rocket 4.2 03:08:32 10° S 03:14:50 74° E 03:21:10 10° NNE
ATLAS 5 CENTAUR R/B 3.9 03:12:12 11° NW 03:15:06 18° N 03:18:41 10° NNE
Cosmos 1339 Rocket 4.5 03:15:35 13° SSW 03:21:09 65° WNW 03:27:21 10° N
Meteor 1-11 Rocket 3.7 03:15:51 10° NNW 03:21:43 90° WSW 03:27:23 10° S
Landsat 5 3.7 03:17:48 10° S 03:22:13 52° W 03:26:36 10° NNW
GENESIS II 4.3 03:21:04 27° SSW 03:23:11 82° SE 03:27:14 10° NE
ADEOS Rocket 3.2 03:16:35 10° SSE 03:23:21 84° ENE 03:29:27 10° NNW
ALOS 4.1 03:19:17 10° NNE 03:23:29 32° E 03:27:39 10° SSE
CZ-4B R/B 2.2 03:21:17 10° SSE 03:24:22 50° ENE 03:27:33 10° N
Cosmos 1459 Rocket 4.3 03:23:29 10° N 03:29:35 69° ENE 03:35:37 10° SSE
ERS-2 2.0 03:28:44 10° S 03:32:22 63° WSW 03:36:01 10° NNW
MSX 4.0 03:27:27 10° N 03:33:03 53° WNW 03:37:58 13° SW
USA 234 3.6 03:27:35 10° SSE 03:33:42 42° SW 03:39:52 10° WNW
Meteor 1-27 Rocket 4.0 03:29:51 10° S 03:35:46 78° E 03:41:42 10° NNE
Cosmos 1484 Rocket 4.3 03:32:28 10° NNE 03:36:15 39° E 03:40:01 10° SSE
Cosmos 1689 Rocket 4.3 03:35:49 10° SE 03:38:27 29° ENE 03:41:07 10° N
Cosmos 2360 Rocket 3.6 03:35:37 10° S 03:40:50 40° ESE 03:46:05 10° NE
Cosmos 1536 2.7 03:37:40 10° NNW 03:41:47 80° W 03:45:50 10° S
Cosmos 1898 Rocket 3.6 03:37:04 10° NNW 03:42:12 56° WSW 03:47:21 10° S
X-37B 1.9 03:42:02 23° SW 03:42:58 26° SSW 03:45:42 10° SE
Cosmos 1697 Rocket 4.0 03:43:20 15° W 03:46:25 24° NW 03:50:54 10° NNE
BREEZE M DEB (TANK) 4.4 03:34:11 10° WNW 03:47:05 39° SW 03:51:24 10° SSE
CZ-4C R/B 3.9 03:41:11 10° NW 03:47:43 47° NE 03:55:22 10° ESE
Meteor 1-31 Rocket 4.1 03:44:06 10° NNE 03:47:45 41° E 03:51:24 10° S
FENGYUN 3A 4.4 03:43:01 10° NNE 03:48:20 56° E 03:53:38 10° S
deb Chang Zheng 4 3.9 03:45:41 10° NNE 03:49:59 69° ESE 03:54:15 10° S
Cosmos 372 Rocket 4.4 03:44:53 10° NNW 03:50:03 67° ENE 03:55:09 10° SSE
Cosmos 1980 Rocket 3.0 03:47:24 17° WSW 03:51:06 34° NW 03:56:14 10° NNE
Cosmos 858 Rocket 4.5 03:47:51 10° NNW 03:52:59 62° WSW 03:58:05 10° S
Cosmos 1437 Rocket 4.5 03:50:32 10° SSE 03:54:00 35° E 03:57:32 10° NNE
Cosmos 2263 Rocket 2.9 03:50:23 10° NW 03:55:15 30° WSW 04:00:06 10° SSW
Cosmos 921 Rocket 3.7 03:52:49 16° WSW 03:55:35 33° WNW 03:59:25 10° N
Cosmos 1844 4.2 03:51:39 10° NNW 03:57:12 63° ENE 04:02:43 10° SE
Cosmos 2322 Rocket 2.3 03:51:47 10° SSW 03:57:29 88° ESE 04:03:14 10° NNE
USA 32 4.2 03:54:29 10° NNW 03:59:34 50° W 04:04:37 10° SSW
Cosmos 1844 Rocket 2.9 03:55:57 10° NNW 04:01:37 79° ENE 04:07:17 10° SSE
Cosmos 2173 Rocket 4.0 03:56:00 10° NNW 04:02:18 72° W 04:08:37 10° S
ADEOS II 4.1 04:03:12 10° NW 04:03:58 10° NW 04:04:44 10° WNW
Cosmos 1812 3.8 04:01:20 13° WSW 04:04:01 25° WNW 04:07:17 10° NNW
Cosmos 1707 Rocket 3.7 04:00:08 10° SSW 04:04:21 51° WNW 04:08:37 10° N
SL-16 R/B 2.2 04:01:01 10° SW 04:06:40 69° WNW 04:12:21 10° NNE
USA 305 3.6 04:03:31 12° W 04:07:21 47° N 04:11:28 10° ENE
Cosmos 1666 3.5 04:04:04 10° NNW 04:07:23 29° W 04:10:41 10° SSW
Cosmos 1937 Rocket 3.7 04:03:07 10° NNW 04:08:03 46° WSW 04:12:54 10° S
ARIANE 5 R/B 4.2 04:05:45 10° NNW 04:08:44 16° NW 04:11:42 10° W
ADEOS 3.6 04:04:36 10° NNE 04:09:51 81° WNW 04:15:04 10° SSW
USA 306 3.6 04:07:32 11° W 04:11:34 46° N 04:15:41 10° ENE
IDEFIX/ARIANE 42P 4.1 04:10:13 10° NNW 04:13:49 19° NW 04:17:24 10° W
Cosmos 1814 Rocket 4.2 04:12:40 10° SSW 04:17:51 77° ESE 04:23:09 10° NNE
CZ-2C R/B 3.0 04:13:39 10° N 04:18:24 40° WNW 04:23:13 10° SW
Cosmos 1733 Rocket 3.3 04:15:22 10° NNW 04:19:31 44° W 04:23:38 10° SSW
Cosmos 841 Rocket 3.5 04:14:21 10° SSW 04:19:35 85° WNW 04:24:54 10° NNE
SAR-Lupe-4 4.1 04:18:00 10° SSW 04:21:21 37° W 04:24:45 10° NNW
Cosmos 2061 Rocket 4.1 04:15:03 10° NNW 04:21:29 76° W 04:27:54 10° S
SKYMED 2 3.6 04:19:38 10° SSE 04:23:58 87° WSW 04:28:21 10° NNW
Cosmos 44 Rocket 3.6 04:19:44 10° SSW 04:24:27 71° SE 04:29:19 10° NE
SL-4 R/B 2.8 04:22:26 10° SW 04:27:00 62° SSE 04:31:47 10° ENE
Cosmos 1763 Rocket 4.0 04:23:27 10° SW 04:28:30 43° WNW 04:33:34 10° NNE
Cosmos 2219 Rocket 3.9 04:26:13 10° S 04:31:23 37° ESE 04:36:35 10° NE
Cosmos 2016 Rocket 4.0 04:26:57 10° NNW 04:32:59 62° W 04:38:58 10° S
